Location: Mana�l
(15.0115°N, 12.5022°W)
Time: 05:31:52
(UTC+00:00)

Cosmos 2237 Rocket - Pass Details

Date: 07 June 2020
Orbit: 833 x 851 km, 71.0° (Epoch: 05 July)

Event Time Altitude Azimuth Distance (km) Brightness Sun altitude
Exits shadow 05:16:10 21° 245° (WSW) 1,799 3.3 -14.5°
Maximum altitude 05:18:52 31° 289° (WNW) 1,431 3.1 -13.9°
Drops below altitude 10° 05:23:49 10° 351° (N) 2,460 4.9 -12.9°
Sets 05:26:33 0° 1° (N) 3,399 5.8 -12.3°
